When you browse on this site, cookies collect data to enhance your experience and personalize the content and advertising you see.
Visit our Privacy Policy to learn more. By continuing to use the site, you agree to this use of cookies and data.
  • In Latvia
  • List of Countries
  • For 7 days
  • Water Temperature
  • Satellite Maps
  • Weather Map
  • Weather Widgets
  • user-avatar
    Login

    Hourly Weather Szpitary

    Today, 18 December, Tuesday

    Time Temperature Precipitation Wind Pressure Humidity
    00:00 -4°C° 0 mm 2 mps 749 mmHg 90%
    01:00 -3°C° 0 mm 2 mps 749 mmHg 90%
    02:00 -3°C° 0 mm 2 mps 749 mmHg 90%
    03:00 0°C° 0 mm 1 mps 749 mmHg 90%
    04:00 0°C° 0 mm 1 mps 749 mmHg 89%
    05:00 0°C° 0 mm 1 mps 749 mmHg 89%
    06:00 -1°C° 0 mm 1 mps 750 mmHg 89%
    07:00 -1°C° 0 mm 1 mps 750 mmHg 89%
    08:00 0°C° 0 mm 1 mps 750 mmHg 88%
    09:00 0°C° 0 mm 1 mps 750 mmHg 87%
    10:00 0°C° 0 mm 0 mps 750 mmHg 86%
    11:00 0°C° 0 mm 0 mps 750 mmHg 86%
    12:00 +1°C° 0 mm 0 mps 750 mmHg 87%
    13:00 +1°C° 0 mm 0 mps 750 mmHg 87%
    14:00 0°C° 0 mm 0 mps 750 mmHg 88%
    15:00 0°C° 0 mm 0 mps 750 mmHg 89%
    16:00 -1°C° 0 mm 0 mps 750 mmHg 90%
    17:00 0°C° 0 mm 1 mps 750 mmHg 90%
    18:00 0°C° 0 mm 1 mps 750 mmHg 90%
    19:00 0°C° 0 mm 1 mps 750 mmHg 90%
    20:00 -1°C° 0 mm 1 mps 750 mmHg 90%
    21:00 -1°C° 0 mm 1 mps 750 mmHg 91%
    22:00 -1°C° 0 mm 1 mps 750 mmHg 91%
    23:00 -3°C° 0 mm 2 mps 750 mmHg 91%

    Tomorrow, 19 December, Wednesday

    Time Temperature Precipitation Wind Pressure Humidity
    00:00 -4°C° 0 mm 2 mps 750 mmHg 92%
    01:00 -4°C° 0 mm 2 mps 750 mmHg 92%
    02:00 -4°C° 0 mm 2 mps 750 mmHg 92%
    03:00 -5°C° 0 mm 2 mps 750 mmHg 91%
    04:00 -5°C° 0 mm 2 mps 749 mmHg 91%
    05:00 -5°C° 0 mm 2 mps 749 mmHg 90%
    06:00 -5°C° 0 mm 2 mps 749 mmHg 89%
    07:00 -5°C° 0 mm 2 mps 749 mmHg 88%
    08:00 -5°C° 0 mm 2 mps 749 mmHg 86%
    09:00 -4°C° 0 mm 2 mps 749 mmHg 83%
    10:00 -3°C° 0 mm 2 mps 749 mmHg 80%
    11:00 -2°C° 0 mm 3 mps 749 mmHg 79%
    12:00 -2°C° 0 mm 3 mps 748 mmHg 79%
    13:00 -1°C° 0 mm 3 mps 748 mmHg 78%
    14:00 -2°C° 0 mm 3 mps 748 mmHg 81%
    15:00 -3°C° 0 mm 2 mps 747 mmHg 84%
    16:00 -4°C° 0 mm 2 mps 747 mmHg 86%
    17:00 -4°C° 0 mm 2 mps 747 mmHg 86%
    18:00 -4°C° 0 mm 2 mps 747 mmHg 86%
    19:00 -4°C° 0 mm 2 mps 747 mmHg 86%
    20:00 -4°C° 0 mm 2 mps 747 mmHg 85%
    21:00 -4°C° 0 mm 2 mps 747 mmHg 85%
    22:00 -5°C° 0 mm 2 mps 746 mmHg 84%
    23:00 -5°C° 0 mm 2 mps 746 mmHg 84%

    Day after tomorrow, 20 December, Thursday

    Time Temperature Precipitation Wind Pressure Humidity
    00:00 -4°C° 0 mm 2 mps 746 mmHg 83%
    01:00 -4°C° 0 mm 2 mps 746 mmHg 82%
    02:00 -4°C° 0 mm 2 mps 746 mmHg 81%
    03:00 -4°C° 0 mm 2 mps 745 mmHg 80%
    04:00 -4°C° 0 mm 2 mps 745 mmHg 79%
    05:00 -2°C° 0 mm 1 mps 745 mmHg 79%
    06:00 -1°C° 0 mm 1 mps 745 mmHg 78%
    07:00 -1°C° 0 mm 1 mps 745 mmHg 78%
    08:00 -1°C° 0 mm 1 mps 745 mmHg 78%
    09:00 0°C° 0 mm 1 mps 745 mmHg 77%
    10:00 +1°C° 0 mm 1 mps 745 mmHg 77%
    11:00 +1°C° 0 mm 1 mps 745 mmHg 78%
    12:00 +1°C° 0 mm 1 mps 745 mmHg 79%
    13:00 +1°C° 0 mm 1 mps 744 mmHg 79%
    14:00 +1°C° 0 mm 1 mps 744 mmHg 81%
    15:00 +1°C° 0 mm 1 mps 744 mmHg 82%
    16:00 0°C° 0 mm 1 mps 744 mmHg 84%
    17:00 0°C° 0 mm 1 mps 744 mmHg 84%
    18:00 0°C° 0 mm 1 mps 744 mmHg 85%
    19:00 0°C° 0 mm 1 mps 745 mmHg 85%
    20:00 -2°C° 0 mm 2 mps 745 mmHg 86%
    21:00 -2°C° 0 mm 2 mps 745 mmHg 87%
    22:00 -2°C° 0 mm 2 mps 745 mmHg 87%
    23:00 -2°C° 0.1 mm 2 mps 745 mmHg 88%

    21 December, Friday

    Time Temperature Precipitation Wind Pressure Humidity
    00:00 -2°C° 0.1 mm 2 mps 745 mmHg 89%
    01:00 -2°C° 0.1 mm 2 mps 745 mmHg 89%
    02:00 -2°C° 0.1 mm 2 mps 744 mmHg 90%
    03:00 -1°C° 0.1 mm 3 mps 744 mmHg 91%
    04:00 -1°C° 0.1 mm 3 mps 744 mmHg 91%
    05:00 -1°C° 0.2 mm 3 mps 744 mmHg 91%
    06:00 -1°C° 0.2 mm 3 mps 744 mmHg 92%
    07:00 -1°C° 0.2 mm 3 mps 744 mmHg 92%
    08:00 0°C° 0 mm 3 mps 744 mmHg 91%
    09:00 0°C° 0 mm 3 mps 744 mmHg 90%
    10:00 0°C° 0 mm 3 mps 744 mmHg 89%
    11:00 +1°C° 0 mm 3 mps 744 mmHg 89%
    12:00 +1°C° 0 mm 3 mps 744 mmHg 89%
    13:00 +2°C° 0 mm 3 mps 743 mmHg 89%
    14:00 +1°C° 0 mm 3 mps 743 mmHg 89%
    15:00 +1°C° 0 mm 3 mps 743 mmHg 88%
    16:00 0°C° 0 mm 3 mps 742 mmHg 88%
    17:00 0°C° 0.1 mm 3 mps 742 mmHg 87%
    18:00 +1°C° 0.1 mm 3 mps 741 mmHg 87%
    19:00 0°C° 0.1 mm 4 mps 741 mmHg 87%
    20:00 0°C° 0.4 mm 4 mps 740 mmHg 86%
    21:00 0°C° 0.4 mm 4 mps 739 mmHg 86%
    22:00 +1°C° 0.4 mm 5 mps 739 mmHg 86%
    23:00 +1°C° 0.8 mm 5 mps 738 mmHg 85%

    22 December, Saturday

    Time Temperature Precipitation Wind Pressure Humidity
    00:00 +1°C° 0.8 mm 6 mps 738 mmHg 85%
    01:00 +2°C° 0.8 mm 7 mps 737 mmHg 84%
    02:00 +2°C° 0.1 mm 7 mps 737 mmHg 85%
    03:00 +2°C° 0.1 mm 7 mps 737 mmHg 86%
    04:00 +3°C° 0.1 mm 7 mps 737 mmHg 87%
    05:00 +3°C° 0 mm 7 mps 737 mmHg 86%
    06:00 +3°C° 0 mm 7 mps 738 mmHg 86%
    07:00 +2°C° 0 mm 7 mps 738 mmHg 85%
    08:00 +2°C° 0 mm 6 mps 739 mmHg 85%
    09:00 +2°C° 0 mm 6 mps 739 mmHg 84%
    10:00 +2°C° 0 mm 5 mps 740 mmHg 84%
    11:00 +3°C° 0 mm 5 mps 739 mmHg 83%
    12:00 +3°C° 0 mm 5 mps 739 mmHg 83%
    13:00 +5°C° 0 mm 5 mps 739 mmHg 83%
    14:00 +3°C° 0.1 mm 5 mps 739 mmHg 84%
    15:00 +3°C° 0.1 mm 5 mps 738 mmHg 85%
    16:00 +3°C° 0.1 mm 5 mps 738 mmHg 87%
    17:00 +3°C° 0.4 mm 5 mps 738 mmHg 87%
    18:00 +3°C° 0.4 mm 6 mps 738 mmHg 87%
    19:00 +4°C° 0.4 mm 6 mps 737 mmHg 88%
    20:00 +4°C° 0.4 mm 6 mps 737 mmHg 88%
    21:00 +3°C° 0.4 mm 6 mps 737 mmHg 89%
    22:00 +3°C° 0.4 mm 6 mps 737 mmHg 90%
    23:00 +3°C° 0.1 mm 6 mps 737 mmHg 89%

    23 December, Sunday

    Time Temperature Precipitation Wind Pressure Humidity
    00:00 +3°C° 0.1 mm 6 mps 738 mmHg 88%
    01:00 +3°C° 0.1 mm 6 mps 738 mmHg 87%
    02:00 +3°C° 0.2 mm 7 mps 738 mmHg 86%
    03:00 +3°C° 0.2 mm 7 mps 739 mmHg 85%
    04:00 +3°C° 0.2 mm 7 mps 739 mmHg 85%
    05:00 +3°C° 0.1 mm 7 mps 739 mmHg 85%
    06:00 +3°C° 0.1 mm 6 mps 740 mmHg 86%
    07:00 +2°C° 0.1 mm 6 mps 741 mmHg 86%
    08:00 +3°C° 0 mm 6 mps 741 mmHg 84%
    09:00 +3°C° 0 mm 6 mps 741 mmHg 83%
    10:00 +3°C° 0 mm 7 mps 742 mmHg 81%
    11:00 +3°C° 0 mm 7 mps 742 mmHg 79%
    12:00 +3°C° 0 mm 7 mps 742 mmHg 77%
    13:00 +3°C° 0 mm 7 mps 742 mmHg 75%
    14:00 +3°C° 0.1 mm 7 mps 742 mmHg 77%
    15:00 +3°C° 0.1 mm 7 mps 742 mmHg 78%
    16:00 +2°C° 0.1 mm 6 mps 742 mmHg 79%
    17:00 +2°C° 0.2 mm 6 mps 743 mmHg 80%
    18:00 +2°C° 0.2 mm 7 mps 743 mmHg 80%
    19:00 +3°C° 0.2 mm 7 mps 743 mmHg 80%
    20:00 +3°C° 0.1 mm 7 mps 744 mmHg 81%
    21:00 +3°C° 0.1 mm 7 mps 744 mmHg 82%
    22:00 +3°C° 0.1 mm 7 mps 745 mmHg 83%
    23:00 +2°C° 0 mm 7 mps 745 mmHg 84%
    Show more